FW4773 Weather Reports


Display with metric or nautical units.
time (UTC)temp
F
wind
direction
speed
MPH
gust
MPH
rain 1hr
in
rain 24hr
in
rain mn
in
humidity
%
barometer
mb
20260901231517 90 295 0.0 0.0 0.00 0.00 0.00 66 1016.3
20260901230010 91 295 0.0 1.0 0.00 0.00 0.00 63 1016.4
20260901224505 92 295 0.0 1.0 0.00 0.00 0.00 59 1016.5
20260901223002 93 295 0.0 1.0 0.00 0.00 0.00 58 1016.4
20260901221600 94 187 2.0 5.0 0.00 0.00 0.00 57 1016.5
20260901220059 94 305 0.0 3.0 0.00 0.00 0.00 57 1016.4
20260901214558 94 341 0.0 3.0 0.00 0.00 0.00 57 1016.5
20260901213052 95 306 3.0 6.0 0.00 0.00 0.00 53 1016.6
20260901211550 96 210 2.0 4.0 0.00 0.00 0.00 54 1016.8
20260901210105 96 305 0.0 3.0 0.00 0.00 0.00 53 1016.8
20260901204547 95 297 1.0 4.0 0.00 0.00 0.00 53 1016.9
20260901203103 95 360 2.0 6.0 0.00 0.00 0.00 53 1016.9
20260901201539 95 360 1.0 3.0 0.00 0.00 0.00 53 1016.9
20260901200047 95 297 1.0 4.0 0.00 0.00 0.00 55 1017.2
20260901194539 95 216 1.0 7.0 0.00 0.00 0.00 55 1017.2
20260901193030 95 307 0.0 6.0 0.00 0.00 0.00 56 1017.5
20260901191526 95 1 1.0 9.0 0.00 0.00 0.00 57 1017.6
20260901190040 94 360 2.0 10.0 0.00 0.00 0.00 57 1017.7
20260901184519 94 347 4.0 7.0 0.00 0.00 0.00 57 1017.7
20260901183025 94 359 1.0 7.0 0.00 0.00 0.00 59 1017.6
20260901181514 92 208 0.0 4.0 0.00 0.00 0.00 64 1017.7
20260901180010 93 44 1.0 4.0 0.00 0.00 0.00 62 1017.9
20260901174504 91 333 0.0 4.0 0.00 0.00 0.00 65 1018.1
20260901173002 91 354 0.0 3.0 0.00 0.00 0.00 63 1018.1
20260901171605 91 18 1.0 3.0 0.00 0.00 0.00 64 1018.3
20260901170100 92 347 0.0 5.0 0.00 0.00 0.00 63 1018.5
20260901164553 92 352 0.0 7.0 0.00 0.00 0.00 63 1018.5
20260901163051 91 217 2.0 7.0 0.00 0.00 0.00 62 1018.7
20260901161554 92 6 2.0 8.0 0.00 0.00 0.00 63 1018.8
20260901160046 92 340 2.0 8.0 0.00 0.00 0.00 62 1018.8
20260901154540 92 360 2.0 10.0 0.00 0.00 0.00 63 1019.0
20260901153040 90 214 2.0 6.0 0.00 0.00 0.00 65 1019.0
20260901151533 90 357 1.0 8.0 0.00 0.00 0.00 66 1019.3
20260901150033 89 240 1.0 6.0 0.00 0.00 0.00 68 1019.3
20260901144524 88 359 2.0 5.0 0.00 0.00 0.00 70 1019.3
20260901143020 87 195 2.0 6.0 0.00 0.00 0.00 71 1019.3
20260901141515 86 289 1.0 3.0 0.00 0.00 0.00 74 1019.3
20260901140019 85 355 0.0 3.0 0.00 0.00 0.00 75 1019.3
20260901134511 85 277 1.0 5.0 0.00 0.00 0.00 76 1019.4
20260901133007 84 208 1.0 3.0 0.00 0.00 0.00 79 1019.5
20260901131603 83 208 0.0 5.0 0.00 0.00 0.00 80 1019.8
20260901130054 82 251 0.0 3.0 0.00 0.00 0.00 81 1020.0
20260901124550 81 304 0.0 3.0 0.00 0.00 0.00 82 1019.9
20260901123045 80 317 0.0 0.0 0.00 0.00 0.00 85 1019.9
20260901121539 78 215 0.0 0.0 0.00 0.00 0.00 89 1019.8
20260901120039 76 337 0.0 0.0 0.00 0.00 0.00 94 1019.7
20260901114529 75 302 0.0 0.0 0.00 0.00 0.00 95 1019.7
20260901113029 74 302 0.0 0.0 0.00 0.00 0.00 95 1019.6
20260901111527 74 302 0.0 0.0 0.00 0.00 0.00 95 1019.7
20260901110022 0 0.0 0.0 0.00 0.00 0.00 1019.7
20260901104536 0 0.0 0.0 0.00 0.00 0.00 1019.6
20260901103010 0 0.0 0.0 0.00 0.00 0.00 1019.6
20260901101510 0 0.0 0.0 0.00 0.00 0.00 1019.3
20260901100100 0 0.0 0.0 0.00 0.00 0.00 1019.3
20260901094555 0 0.0 0.0 0.00 0.00 0.00 1019.3
20260901093053 73 303 0.0 0.0 0.00 0.00 0.00 95 1019.5
20260901091559 73 302 0.0 0.0 0.00 0.00 0.00 95 1019.5
20260901090047 74 302 0.0 0.0 0.00 0.00 0.00 95 1019.6
20260901084544 74 302 0.0 0.0 0.00 0.00 0.00 95 1019.5
20260901083042 74 302 0.0 0.0 0.00 0.00 0.00 95 1019.5
20260901081540 74 302 0.0 0.0 0.00 0.00 0.00 95 1019.5
20260901080038 74 302 0.0 0.0 0.00 0.00 0.00 95 1019.4
20260901074545 74 302 0.0 0.0 0.00 0.00 0.00 95 1019.6
20260901073034 74 302 0.0 0.0 0.00 0.00 0.00 95 1019.7
20260901071534 74 302 0.0 0.0 0.00 0.00 0.00 95 1019.7
20260901070027 74 302 0.0 0.0 0.00 0.00 0.00 95 1020.0
20260901064524 74 302 0.0 0.0 0.00 0.00 0.00 95 1020.1
20260901063022 74 302 0.0 0.0 0.00 0.00 0.00 95 1019.9
20260901061520 75 302 0.0 0.0 0.00 0.00 0.00 94 1020.0
20260901060022 75 302 0.0 0.0 0.00 0.00 0.00 95 1020.2
20260901054515 75 302 0.0 0.0 0.00 0.00 0.00 94 1020.3
20260901053012 75 302 0.0 0.0 0.00 0.00 0.00 94 1020.4
20260901051511 75 302 0.0 0.0 0.00 0.00 0.00 94 1020.7
20260901050006 75 302 0.0 0.0 0.00 0.00 0.00 94 1020.8
20260901044506 75 302 0.0 0.0 0.00 0.00 0.00 94 1021.0
20260901043000 75 302 0.0 0.0 0.00 0.00 0.00 94 1021.0
20260901041557 75 302 0.0 0.0 0.00 0.00 0.00 94 1021.1
20260901040105 76 302 0.0 0.0 0.00 0.00 0.00 93 1021.0
20260901034557 76 302 0.0 0.0 0.00 0.00 0.00 93 1021.0
20260901033106 76 302 0.0 0.0 0.00 0.00 0.00 92 1021.0
20260901031604 76 302 0.0 0.0 0.00 0.00 0.00 92 1021.1
20260901030050 77 302 0.0 0.0 0.00 0.00 0.00 91 1021.0
20260901024543 77 216 0.0 0.0 0.00 0.00 0.00 91 1020.8
20260901023042 77 183 0.0 1.0 0.00 0.00 0.00 90 1020.8
20260901021539 77 177 0.0 2.0 0.00 0.00 0.00 90 1021.1
20260901020038 78 224 0.0 4.0 0.00 0.00 0.00 90 1020.9
20260901014534 77 211 0.0 2.0 0.00 0.01 0.00 90 1020.9
20260901013040 77 151 0.0 0.0 0.00 0.01 0.00 89 1021.0
20260901011531 77 151 0.0 0.0 0.00 0.01 0.00 88 1021.0
20260901010034 78 151 0.0 0.0 0.00 0.01 0.00 88 1021.0
20260901004527 78 101 0.0 0.0 0.00 0.01 0.00 87 1020.7
20260901003025 78 101 0.0 0.0 0.00 0.01 0.00 86 1020.7
20260901001534 79 101 0.0 0.0 0.00 0.01 0.00 85 1020.6
20260901000029 80 101 0.0 0.0 0.00 0.01 0.00 83 1020.7
20260831234521 80 102 0.0 1.0 0.00 0.01 0.00 82 1020.6
20260831233018 80 101 0.0 0.0 0.00 0.01 0.00 80 1020.7